Location: Utrecht
(52.0907°N, 5.1214°E)
Time: 00:20:42
(UTC+02:00)

ESTCUBE 1 - Pass Details

Date: 28 June 2022
Orbit: 646 x 657 km, 97.9° (Epoch: 13 August)

Event Time Altitude Azimuth Distance (km) Brightness Sun altitude
Exits shadow 01:01:06 - 224° (SW) 2,303 ? -14.1°
Reaches altitude 10° 01:02:03 10° 233° (SW) 2,046 ? -14.1°
Maximum altitude 01:04:50 16° 272° (W) 1,678 ? -14.2°
Drops below altitude 10° 01:07:38 10° 311° (NW) 2,059 ? -14.2°
Sets 01:10:40 0° 333° (NNW) 2,977 ? -14.3°
